This is the latest recevied weather packets stored in our database for station/object WD8EHT. If no packets are shown the sender has not sent any weather packets the latest 1 day(s).
| Time | Temp. | Humidity | Pressure | Rain* | Wind** | Luminosity | Snow |
|---|---|---|---|---|---|---|---|
| 1778024073 | 10.56° C | 49% | 1006.7 hPa | 0 mm | 0.45 m/s, 347° | 25 W/m² | - |
| 1778023770 | 10.56° C | 49% | 1006.7 hPa | 0 mm | 0.45 m/s, 344° | 26 W/m² | - |
| 1778023468 | 11.11° C | 48% | 1006.4 hPa | 0 mm | 0 m/s | 32 W/m² | - |
| 1778023164 | 11.11° C | 47% | 1006.3 hPa | 0 mm | 0.45 m/s, 345° | 28 W/m² | - |
| 1778022862 | 11.11° C | 47% | 1006.5 hPa | 0 mm | 0.89 m/s, 333° | 27 W/m² | - |
| 1778022560 | 11.11° C | 47% | 1006.4 hPa | 0 mm | 0 m/s | 27 W/m² | - |
| 1778022262 | 11.11° C | 45% | 1006.5 hPa | 0 mm | 0.45 m/s, 1° | 30 W/m² | - |
| 1778021954 | 11.11° C | 45% | 1006.5 hPa | 0 mm | 0.45 m/s, 4° | 42 W/m² | - |
| 1778021651 | 11.11° C | 48% | 1006.7 hPa | 0 mm | 0 m/s | 59 W/m² | - |
| 1778021346 | 10.56° C | 47% | 1006.4 hPa | 0 mm | 0.45 m/s, 27° | 42 W/m² | - |
| 1778021044 | 11.11° C | 46% | 1006.3 hPa | 0 mm | 0 m/s | 44 W/m² | - |
| 1778020741 | 11.11° C | 45% | 1006.2 hPa | 0 mm | 0.45 m/s, 0° | 43 W/m² | - |
| 1778020437 | 11.11° C | 45% | 1006.4 hPa | 0 mm | 1.34 m/s, 357° | 77 W/m² | - |
| 1778020133 | 11.11° C | 46% | 1006.3 hPa | 0 mm | 0.89 m/s, 287° | 69 W/m² | - |
| 1778019830 | 11.67° C | 44% | 1006.6 hPa | 0 mm | 0.89 m/s, 48° | 75 W/m² | - |
| 1778019527 | 11.11° C | 45% | 1006.5 hPa | 0 mm | 0.89 m/s, 11° | 86 W/m² | - |
| 1778019224 | 11.11° C | 45% | 1006.5 hPa | 0 mm | 0.89 m/s, 13° | 102 W/m² | - |
| 1778018921 | 11.11° C | 44% | 1006.5 hPa | 0 mm | 1.34 m/s, 352° | 107 W/m² | - |
| 1778018617 | 11.67° C | 44% | 1006.6 hPa | 0 mm | 1.79 m/s, 28° | 109 W/m² | - |
| 1778018315 | 11.67° C | 44% | 1006.5 hPa | 0 mm | 2.24 m/s, 65° | 117 W/m² | - |
| 1778018013 | 11.67° C | 44% | 1006.4 hPa | 0 mm | 0.89 m/s, 303° | 124 W/m² | - |
| 1778017711 | 11.67° C | 45% | 1006.4 hPa | 0 mm | 0 m/s | 124 W/m² | - |
| 1778017408 | 11.67° C | 43% | 1006.3 hPa | 0 mm | 1.34 m/s, 303° | 131 W/m² | - |
| 1778017105 | 11.67° C | 42% | 1006.4 hPa | 0 mm | 0.89 m/s, 12° | 143 W/m² | - |
| 1778016803 | 11.67° C | 43% | 1006.6 hPa | 0 mm | 0.89 m/s, 180° | 151 W/m² | - |
* Rain latest hour (hover to see other rain measurements)
** Current wind speed in m/s (hover to see current wind gust speed)